
Distance (Route):
Temperature : 21.9°C
Humidity : 41.8%
Pressure : 0hPa| Receiver | Frames | First received | Last received |
|---|---|---|---|
| LZ4TU-5 | 244 | 2026-09-01 00:43:10 | 2026-09-01 02:09:20 |
| Receiver | Date | Latitude | Longitude | Direction | Speed | Altitude | Climb | Temperature | Humidity | Pressure | Voltage | Killtimer | Uptime | BKT | XDATA |
|---|---|---|---|---|---|---|---|---|---|---|---|---|---|---|---|
| LZ4TU-5 | 2026-09-01 02:09:20 | 40.29165 | 23.10299 | 78° | 37km/h | 16296m | -17.0m/s | 21.9°C | 41.8% | 0hPa | 0V | 00:00:00 | 00:00:00 | 00:00:00 | |
| LZ4TU-5 | 2026-09-01 02:09:15 | 40.29153 | 23.10242 | 78° | 37km/h | 16393m | -20.2m/s | 21.9°C | 41.8% | 0hPa | 0V | 00:00:00 | 00:00:00 | 00:00:00 | |
| LZ4TU-5 | 2026-09-01 02:09:05 | 40.29129 | 23.10111 | 75° | 42km/h | 16633m | -28.0m/s | 20.4°C | 47.1% | 0hPa | 0V | 00:00:00 | 00:00:00 | 00:00:00 | |
| LZ4TU-5 | 2026-09-01 02:09:00 | 40.29118 | 23.10038 | 90° | 46km/h | 16774m | -27.0m/s | 20.4°C | 47.1% | 0hPa | 0V | 00:00:00 | 00:00:00 | 00:00:00 | |
| LZ4TU-5 | 2026-09-01 02:08:06 | 40.29056 | 23.09381 | 62° | 26km/h | 18294m | -29.5m/s | 21.9°C | 41.8% | 0hPa | 0V | 00:00:00 | 00:00:00 | 00:00:00 | |
| LZ4TU-5 | 2026-09-01 02:08:01 | 40.29037 | 23.09347 | 52° | 29km/h | 18439m | -25.8m/s | 21.9°C | 0% | 0hPa | 0V | 00:00:00 | 00:00:00 | 00:00:00 | |
| LZ4TU-5 | 2026-09-01 02:07:51 | 40.29008 | 23.09259 | 86° | 33km/h | 18696m | -22.4m/s | 20.4°C | 47.1% | 0hPa | 0V | 00:00:00 | 00:00:00 | 00:00:00 | |
| LZ4TU-5 | 2026-09-01 02:07:47 | 40.29005 | 23.09220 | 94° | 31km/h | 18796m | -24.0m/s | 20.4°C | 47.1% | 0hPa | 0V | 00:00:00 | 00:00:00 | 00:00:00 | |
| LZ4TU-5 | 2026-09-01 02:06:51 | 40.28969 | 23.09051 | 164° | 4km/h | 20582m | -32.9m/s | 21.9°C | 41.8% | 0hPa | 0V | 00:00:00 | 00:00:00 | 00:00:00 | |
| LZ4TU-5 | 2026-09-01 02:06:47 | 40.28971 | 23.09050 | 233° | 9km/h | 20714m | -32.8m/s | 21.9°C | 41.8% | 0hPa | 0V | 00:00:00 | 00:00:00 | 00:00:00 | |
| LZ4TU-5 | 2026-09-01 02:06:37 | 40.28967 | 23.09075 | 299° | 13km/h | 21076m | -33.3m/s | 20.4°C | 47.1% | 0hPa | 0V | 00:00:00 | 00:00:00 | 00:00:00 | |
| LZ4TU-5 | 2026-09-01 02:06:33 | 40.28960 | 23.09088 | 313° | 7km/h | 21211m | -31.3m/s | 20.4°C | 0% | 0hPa | 0V | 00:00:00 | 00:00:00 | 00:00:00 | |
| LZ4TU-5 | 2026-09-01 02:05:37 | 40.28870 | 23.09182 | 219° | 13km/h | 23204m | -34.4m/s | 21.9°C | 41.8% | 0hPa | 0V | 00:00:00 | 00:00:00 | 00:00:00 | |
| LZ4TU-5 | 2026-09-01 02:05:32 | 40.28875 | 23.09201 | 283° | 13km/h | 23389m | -33.4m/s | 21.9°C | 41.8% | 0hPa | 0V | 00:00:00 | 00:00:00 | 00:00:00 | |
| LZ4TU-5 | 2026-09-01 02:05:22 | 40.28856 | 23.09239 | 306° | 9km/h | 23755m | -36.5m/s | 20.4°C | 47.1% | 0hPa | 0V | 00:00:00 | 00:00:00 | 00:00:00 | |
| LZ4TU-5 | 2026-09-01 02:05:18 | 40.28851 | 23.09249 | 314° | 9km/h | 23916m | -40.7m/s | 20.4°C | 47.1% | 0hPa | 0V | 00:00:00 | 00:00:00 | 00:00:00 | |
| LZ4TU-5 | 2026-09-01 02:04:23 | 40.28931 | 23.09518 | 272° | 27km/h | 26345m | -41.8m/s | 21.9°C | 41.8% | 0hPa | 0V | 00:00:00 | 00:00:00 | 00:00:00 | |
| LZ4TU-5 | 2026-09-01 02:04:18 | 40.28927 | 23.09562 | 287° | 27km/h | 26561m | -40.4m/s | 21.9°C | 0% | 0hPa | 0V | 00:00:00 | 00:00:00 | 00:00:00 | |
| LZ4TU-5 | 2026-09-01 02:03:14 | 40.28877 | 23.09995 | 303° | 20km/h | 29898m | -59.5m/s | 21.9°C | 41.8% | 0hPa | 0V | 00:00:00 | 00:00:00 | 00:00:00 | |
| LZ4TU-5 | 2026-09-01 02:03:08 | 40.28864 | 23.10027 | 294° | 24km/h | 30208m | -63.8m/s | 21.9°C | 41.8% | 0hPa | 0V | 00:00:00 | 00:00:00 | 00:00:00 | |
| LZ4TU-5 | 2026-09-01 02:02:58 | 40.28848 | 23.10073 | 255° | 9km/h | 30844m | -63.3m/s | 20.4°C | 47.1% | 0hPa | 0V | 00:00:00 | 00:00:00 | 00:00:00 | |
| LZ4TU-5 | 2026-09-01 02:02:54 | 40.28853 | 23.10087 | 239° | 15km/h | 31100m | -60.1m/s | 20.4°C | 47.1% | 0hPa | 0V | 00:00:00 | 00:00:00 | 00:00:00 | |
| LZ4TU-5 | 2026-09-01 02:02:00 | 40.29018 | 23.10475 | 257° | 40km/h | 34550m | -82.9m/s | 21.9°C | 41.8% | 0hPa | 0V | 00:00:00 | 00:00:00 | 00:00:00 | |
| LZ4TU-5 | 2026-09-01 02:01:55 | 40.29033 | 23.10541 | 245° | 47km/h | 34952m | -83.1m/s | 21.9°C | 41.8% | 0hPa | 0V | 00:00:00 | 00:00:00 | 00:00:00 | |
| LZ4TU-5 | 2026-09-01 02:01:43 | 40.29089 | 23.10712 | 255° | 40km/h | 35751m | -56.9m/s | 20.4°C | 47.1% | 0hPa | 0V | 00:00:00 | 00:00:00 | 00:00:00 | |
| LZ4TU-5 | 2026-09-01 02:01:39 | 40.29139 | 23.10761 | 203° | 108km/h | 35946m | -29.1m/s | 20.4°C | 47.1% | 0hPa | 0V | 00:00:00 | 00:00:00 | 00:00:00 | |
| LZ4TU-5 | 2026-09-01 02:01:33 | 40.29202 | 23.10847 | 257° | 38km/h | 35947m | 2.6m/s | 20.4°C | 0% | 0hPa | 0V | 00:00:00 | 00:00:00 | 00:00:00 | |
| LZ4TU-5 | 2026-09-01 02:00:39 | 40.29247 | 23.11445 | 272° | 49km/h | 35809m | 2.6m/s | 21.9°C | 41.8% | 0hPa | 0V | 00:00:00 | 00:00:00 | 00:00:00 | |
| LZ4TU-5 | 2026-09-01 02:00:34 | 40.29239 | 23.11525 | 281° | 40km/h | 35796m | 2.7m/s | 21.9°C | 41.8% | 0hPa | 0V | 00:00:00 | 00:00:00 | 00:00:00 | |
| LZ4TU-5 | 2026-09-01 02:00:24 | 40.29228 | 23.11663 | 283° | 47km/h | 35770m | 2.4m/s | 20.4°C | 47.1% | 0hPa | 0V | 00:00:00 | 00:00:00 | 00:00:00 | |
| LZ4TU-5 | 2026-09-01 02:00:20 | 40.29222 | 23.11713 | 274° | 31km/h | 35759m | 2.5m/s | 20.4°C | 47.1% | 0hPa | 0V | 00:00:00 | 00:00:00 | 00:00:00 | |
| LZ4TU-5 | 2026-09-01 01:59:25 | 40.29173 | 23.12616 | 278° | 55km/h | 35590m | 3.9m/s | 21.9°C | 41.8% | 0hPa | 0V | 00:00:00 | 00:00:00 | 00:00:00 | |
| LZ4TU-5 | 2026-09-01 01:59:20 | 40.29173 | 23.12697 | 269° | 57km/h | 35571m | 3.9m/s | 21.9°C | 41.8% | 0hPa | 0V | 00:00:00 | 00:00:00 | 00:00:00 | |
| LZ4TU-5 | 2026-09-01 01:59:10 | 40.29173 | 23.12892 | 263° | 44km/h | 35531m | 3.0m/s | 20.4°C | 47.1% | 0hPa | 0V | 00:00:00 | 00:00:00 | 00:00:00 | |
| LZ4TU-5 | 2026-09-01 01:59:05 | 40.29175 | 23.12994 | 274° | 77km/h | 35510m | 4.6m/s | 20.4°C | 47.1% | 0hPa | 0V | 00:00:00 | 00:00:00 | 00:00:00 | |
| LZ4TU-5 | 2026-09-01 01:58:11 | 40.29247 | 23.14032 | 259° | 47km/h | 35243m | 5.5m/s | 21.9°C | 41.8% | 0hPa | 0V | 00:00:00 | 00:00:00 | 00:00:00 | |
| LZ4TU-5 | 2026-09-01 01:58:06 | 40.29250 | 23.14106 | 271° | 53km/h | 35222m | 4.2m/s | 21.9°C | 41.8% | 0hPa | 0V | 00:00:00 | 00:00:00 | 00:00:00 | |
| LZ4TU-5 | 2026-09-01 01:57:56 | 40.29275 | 23.14222 | 276° | 58km/h | 35170m | 5.7m/s | 20.4°C | 47.1% | 0hPa | 0V | 00:00:00 | 00:00:00 | 00:00:00 | |
| LZ4TU-5 | 2026-09-01 01:57:51 | 40.29274 | 23.14295 | 243° | 27km/h | 35144m | 6.1m/s | 20.4°C | 0% | 0hPa | 0V | 00:00:00 | 00:00:00 | 00:00:00 | |
| LZ4TU-5 | 2026-09-01 01:56:56 | 40.29237 | 23.15072 | 285° | 58km/h | 34890m | 3.2m/s | 21.9°C | 41.8% | 0hPa | 0V | 00:00:00 | 00:00:00 | 00:00:00 | |
| LZ4TU-5 | 2026-09-01 01:56:51 | 40.29241 | 23.15135 | 245° | 33km/h | 34869m | 3.3m/s | 21.9°C | 41.8% | 0hPa | 0V | 00:00:00 | 00:00:00 | 00:00:00 | |
| LZ4TU-5 | 2026-09-01 01:56:41 | 40.29233 | 23.15291 | 248° | 33km/h | 34831m | 4.6m/s | 20.4°C | 47.1% | 0hPa | 0V | 00:00:00 | 00:00:00 | 00:00:00 | |
| LZ4TU-5 | 2026-09-01 01:56:36 | 40.29249 | 23.15357 | 273° | 57km/h | 34814m | 4.1m/s | 20.4°C | 47.1% | 0hPa | 0V | 00:00:00 | 00:00:00 | 00:00:00 | |
| LZ4TU-5 | 2026-09-01 01:55:41 | 40.29271 | 23.16042 | 244° | 24km/h | 34633m | 2.5m/s | 21.9°C | 41.8% | 0hPa | 0V | 00:00:00 | 00:00:00 | 00:00:00 | |
| LZ4TU-5 | 2026-09-01 01:55:36 | 40.29259 | 23.16096 | 303° | 46km/h | 34616m | 2.7m/s | 21.9°C | 41.8% | 0hPa | 0V | 00:00:00 | 00:00:00 | 00:00:00 | |
| LZ4TU-5 | 2026-09-01 01:55:26 | 40.29264 | 23.16202 | 287° | 51km/h | 34584m | 4.4m/s | 20.4°C | 47.1% | 0hPa | 0V | 00:00:00 | 00:00:00 | 00:00:00 | |
| LZ4TU-5 | 2026-09-01 01:55:22 | 40.29250 | 23.16268 | 271° | 40km/h | 34573m | 3.3m/s | 20.4°C | 0% | 0hPa | 0V | 00:00:00 | 00:00:00 | 00:00:00 | |
| LZ4TU-5 | 2026-09-01 01:54:27 | 40.29345 | 23.17006 | 282° | 49km/h | 34375m | 5.8m/s | 21.9°C | 41.8% | 0hPa | 0V | 00:00:00 | 00:00:00 | 00:00:00 | |
| LZ4TU-5 | 2026-09-01 01:54:23 | 40.29342 | 23.17070 | 247° | 46km/h | 34359m | 5.0m/s | 21.9°C | 41.8% | 0hPa | 0V | 00:00:00 | 00:00:00 | 00:00:00 | |
| LZ4TU-5 | 2026-09-01 01:54:13 | 40.29385 | 23.17189 | 276° | 53km/h | 34313m | 2.4m/s | 20.4°C | 47.1% | 0hPa | 0V | 00:00:00 | 00:00:00 | 00:00:00 | |
| LZ4TU-5 | 2026-09-01 01:54:08 | 40.29421 | 23.17256 | 209° | 55km/h | 34290m | 3.6m/s | 20.4°C | 47.1% | 0hPa | 0V | 00:00:00 | 00:00:00 | 00:00:00 | |
| LZ4TU-5 | 2026-09-01 01:53:14 | 40.29620 | 23.17819 | 254° | 42km/h | 34032m | 3.0m/s | 21.9°C | 41.8% | 0hPa | 0V | 00:00:00 | 00:00:00 | 00:00:00 | |
| LZ4TU-5 | 2026-09-01 01:53:09 | 40.29663 | 23.17846 | 192° | 31km/h | 34006m | 2.0m/s | 21.9°C | 0% | 0hPa | 0V | 00:00:00 | 00:00:00 | 00:00:00 | |
| LZ4TU-5 | 2026-09-01 01:52:59 | 40.29699 | 23.17956 | 189° | 51km/h | 33957m | 4.6m/s | 20.4°C | 47.1% | 0hPa | 0V | 00:00:00 | 00:00:00 | 00:00:00 | |
| LZ4TU-5 | 2026-09-01 01:52:54 | 40.29719 | 23.17983 | 294° | 46km/h | 33936m | 6.1m/s | 20.4°C | 47.1% | 0hPa | 0V | 00:00:00 | 00:00:00 | 00:00:00 | |
| LZ4TU-5 | 2026-09-01 01:51:59 | 40.30026 | 23.18434 | 289° | 44km/h | 33712m | 5.7m/s | 21.9°C | 41.8% | 0hPa | 0V | 00:00:00 | 00:00:00 | 00:00:00 | |
| LZ4TU-5 | 2026-09-01 01:51:54 | 40.30045 | 23.18503 | 194° | 49km/h | 33695m | 6.4m/s | 21.9°C | 41.8% | 0hPa | 0V | 00:00:00 | 00:00:00 | 00:00:00 | |
| LZ4TU-5 | 2026-09-01 01:51:44 | 40.30082 | 23.18577 | 218° | 46km/h | 33663m | 5.3m/s | 20.4°C | 47.1% | 0hPa | 0V | 00:00:00 | 00:00:00 | 00:00:00 | |
| LZ4TU-5 | 2026-09-01 01:51:39 | 40.30117 | 23.18578 | 288° | 11km/h | 33647m | 4.4m/s | 20.4°C | 0% | 0hPa | 0V | 00:00:00 | 00:00:00 | 00:00:00 | |
| LZ4TU-5 | 2026-09-01 01:50:44 | 40.30326 | 23.18946 | 152° | 7km/h | 33471m | 0.8m/s | 21.9°C | 41.8% | 0hPa | 0V | 00:00:00 | 00:00:00 | 00:00:00 | |
| LZ4TU-5 | 2026-09-01 01:50:39 | 40.30323 | 23.19008 | 254° | 53km/h | 33454m | -0.6m/s | 21.9°C | 41.8% | 0hPa | 0V | 00:00:00 | 00:00:00 | 00:00:00 | |
| LZ4TU-5 | 2026-09-01 01:50:29 | 40.30364 | 23.19053 | 265° | 58km/h | 33423m | 3.1m/s | 20.4°C | 47.1% | 0hPa | 0V | 00:00:00 | 00:00:00 | 00:00:00 | |
| LZ4TU-5 | 2026-09-01 01:50:24 | 40.30400 | 23.19098 | 155° | 35km/h | 33408m | 4.0m/s | 20.4°C | 47.1% | 0hPa | 0V | 00:00:00 | 00:00:00 | 00:00:00 | |
| LZ4TU-5 | 2026-09-01 01:49:30 | 40.30619 | 23.19412 | 119° | 31km/h | 33227m | 5.0m/s | 21.9°C | 41.8% | 0hPa | 0V | 00:00:00 | 00:00:00 | 00:00:00 | |
| LZ4TU-5 | 2026-09-01 01:49:25 | 40.30618 | 23.19415 | 258° | 46km/h | 33208m | 6.1m/s | 21.9°C | 41.8% | 0hPa | 0V | 00:00:00 | 00:00:00 | 00:00:00 | |
| LZ4TU-5 | 2026-09-01 01:49:16 | 40.30649 | 23.19443 | 293° | 20km/h | 33177m | 5.2m/s | 20.4°C | 47.1% | 0hPa | 0V | 00:00:00 | 00:00:00 | 00:00:00 | |
| LZ4TU-5 | 2026-09-01 01:49:11 | 40.30671 | 23.19506 | 212° | 35km/h | 33157m | 3.1m/s | 20.4°C | 0% | 0hPa | 0V | 00:00:00 | 00:00:00 | 00:00:00 | |
| LZ4TU-5 | 2026-09-01 01:48:16 | 40.30699 | 23.19737 | 104° | 9km/h | 32913m | 7.6m/s | 21.9°C | 41.8% | 0hPa | 0V | 00:00:00 | 00:00:00 | 00:00:00 | |
| LZ4TU-5 | 2026-09-01 01:48:12 | 40.30681 | 23.19716 | 345° | 22km/h | 32896m | 2.6m/s | 21.9°C | 41.8% | 0hPa | 0V | 00:00:00 | 00:00:00 | 00:00:00 | |
| LZ4TU-5 | 2026-09-01 01:48:02 | 40.30685 | 23.19764 | 42° | 26km/h | 32845m | 1.6m/s | 20.4°C | 47.1% | 0hPa | 0V | 00:00:00 | 00:00:00 | 00:00:00 | |
| LZ4TU-5 | 2026-09-01 01:47:58 | 40.30683 | 23.19785 | 248° | 49km/h | 32824m | 7.1m/s | 20.4°C | 47.1% | 0hPa | 0V | 00:00:00 | 00:00:00 | 00:00:00 | |
| LZ4TU-5 | 2026-09-01 01:47:02 | 40.30751 | 23.20005 | 233° | 31km/h | 32570m | 2.2m/s | 21.9°C | 41.8% | 0hPa | 0V | 00:00:00 | 00:00:00 | 00:00:00 | |
| LZ4TU-5 | 2026-09-01 01:46:58 | 40.30749 | 23.20005 | 37° | 26km/h | 32551m | 3.3m/s | 21.9°C | 41.8% | 0hPa | 0V | 00:00:00 | 00:00:00 | 00:00:00 | |
| LZ4TU-5 | 2026-09-01 01:46:48 | 40.30752 | 23.20045 | 39° | 26km/h | 32509m | 5.1m/s | 20.4°C | 47.1% | 0hPa | 0V | 00:00:00 | 00:00:00 | 00:00:00 | |
| LZ4TU-5 | 2026-09-01 01:46:44 | 40.30738 | 23.20040 | 256° | 18km/h | 32495m | 6.3m/s | 20.4°C | 0% | 0hPa | 0V | 00:00:00 | 00:00:00 | 00:00:00 | |
| LZ4TU-5 | 2026-09-01 01:45:50 | 40.30659 | 23.20232 | 247° | 44km/h | 32297m | 5.0m/s | 21.9°C | 41.8% | 0hPa | 0V | 00:00:00 | 00:00:00 | 00:00:00 | |
| LZ4TU-5 | 2026-09-01 01:45:45 | 40.30655 | 23.20282 | 7° | 22km/h | 32281m | 4.9m/s | 21.9°C | 41.8% | 0hPa | 0V | 00:00:00 | 00:00:00 | 00:00:00 | |
| LZ4TU-5 | 2026-09-01 01:45:35 | 40.30669 | 23.20349 | 321° | 13km/h | 32250m | 5.6m/s | 20.4°C | 47.1% | 0hPa | 0V | 00:00:00 | 00:00:00 | 00:00:00 | |
| LZ4TU-5 | 2026-09-01 01:45:31 | 40.30656 | 23.20350 | 267° | 16km/h | 32241m | 2.7m/s | 20.4°C | 47.1% | 0hPa | 0V | 00:00:00 | 00:00:00 | 00:00:00 | |
| LZ4TU-5 | 2026-09-01 01:44:36 | 40.30808 | 23.20749 | 231° | 44km/h | 32057m | 5.1m/s | 21.9°C | 41.8% | 0hPa | 0V | 00:00:00 | 00:00:00 | 00:00:00 | |
| LZ4TU-5 | 2026-09-01 01:44:31 | 40.30839 | 23.20777 | 89° | 11km/h | 32040m | 5.8m/s | 21.9°C | 41.8% | 0hPa | 0V | 00:00:00 | 00:00:00 | 00:00:00 | |
| LZ4TU-5 | 2026-09-01 01:44:21 | 40.30853 | 23.20816 | 81° | 7km/h | 32005m | 6.1m/s | 20.4°C | 47.1% | 0hPa | 0V | 00:00:00 | 00:00:00 | 00:00:00 | |
| LZ4TU-5 | 2026-09-01 01:44:17 | 40.30839 | 23.20806 | 310° | 13km/h | 31991m | 3.7m/s | 20.4°C | 47.1% | 0hPa | 0V | 00:00:00 | 00:00:00 | 00:00:00 | |
| LZ4TU-5 | 2026-09-01 01:43:22 | 40.30723 | 23.21098 | 274° | 53km/h | 31764m | 4.5m/s | 21.9°C | 41.8% | 0hPa | 0V | 00:00:00 | 00:00:00 | 00:00:00 | |
| LZ4TU-5 | 2026-09-01 01:43:17 | 40.30702 | 23.21146 | 18° | 20km/h | 31742m | 5.2m/s | 21.9°C | 41.8% | 0hPa | 0V | 00:00:00 | 00:00:00 | 00:00:00 | |
| LZ4TU-5 | 2026-09-01 01:43:07 | 40.30684 | 23.21209 | 346° | 22km/h | 31696m | 4.8m/s | 20.4°C | 47.1% | 0hPa | 0V | 00:00:00 | 00:00:00 | 00:00:00 | |
| LZ4TU-5 | 2026-09-01 01:43:03 | 40.30681 | 23.21219 | 234° | 27km/h | 31677m | 6.0m/s | 20.4°C | 0% | 0hPa | 0V | 00:00:00 | 00:00:00 | 00:00:00 | |
| LZ4TU-5 | 2026-09-01 01:42:08 | 40.30759 | 23.21539 | 155° | 15km/h | 31419m | 5.7m/s | 21.9°C | 41.8% | 0hPa | 0V | 00:00:00 | 00:00:00 | 00:00:00 | |
| LZ4TU-5 | 2026-09-01 01:42:03 | 40.30746 | 23.21536 | 278° | 22km/h | 31396m | 5.1m/s | 21.9°C | 41.8% | 0hPa | 0V | 00:00:00 | 00:00:00 | 00:00:00 | |
| LZ4TU-5 | 2026-09-01 01:41:53 | 40.30769 | 23.21548 | 281° | 20km/h | 31352m | 5.8m/s | 20.4°C | 47.1% | 0hPa | 0V | 00:00:00 | 00:00:00 | 00:00:00 | |
| LZ4TU-5 | 2026-09-01 01:41:48 | 40.30795 | 23.21570 | 135° | 27km/h | 31330m | 6.6m/s | 20.4°C | 47.1% | 0hPa | 0V | 00:00:00 | 00:00:00 | 00:00:00 | |
| LZ4TU-5 | 2026-09-01 01:40:53 | 40.30851 | 23.21449 | 139° | 13km/h | 31096m | 4.0m/s | 21.9°C | 41.8% | 0hPa | 0V | 00:00:00 | 00:00:00 | 00:00:00 | |
| LZ4TU-5 | 2026-09-01 01:40:48 | 40.30865 | 23.21475 | 281° | 16km/h | 31076m | 3.5m/s | 21.9°C | 41.8% | 0hPa | 0V | 00:00:00 | 00:00:00 | 00:00:00 | |
| LZ4TU-5 | 2026-09-01 01:40:38 | 40.30869 | 23.21493 | 262° | 18km/h | 31036m | 3.8m/s | 20.4°C | 47.1% | 0hPa | 0V | 00:00:00 | 00:00:00 | 00:00:00 | |
| LZ4TU-5 | 2026-09-01 01:40:33 | 40.30857 | 23.21494 | 345° | 11km/h | 31016m | 3.8m/s | 20.4°C | 0% | 0hPa | 0V | 00:00:00 | 00:00:00 | 00:00:00 | |
| LZ4TU-5 | 2026-09-01 01:39:38 | 40.30804 | 23.21707 | 342° | 24km/h | 30806m | 2.9m/s | 21.9°C | 41.8% | 0hPa | 0V | 00:00:00 | 00:00:00 | 00:00:00 | |
| LZ4TU-5 | 2026-09-01 01:39:34 | 40.30789 | 23.21731 | 276° | 29km/h | 30790m | 4.0m/s | 21.9°C | 41.8% | 0hPa | 0V | 00:00:00 | 00:00:00 | 00:00:00 | |
| LZ4TU-5 | 2026-09-01 01:39:25 | 40.30764 | 23.21781 | 281° | 35km/h | 30756m | 4.9m/s | 20.4°C | 47.1% | 0hPa | 0V | 00:00:00 | 00:00:00 | 00:00:00 | |
| LZ4TU-5 | 2026-09-01 01:39:20 | 40.30761 | 23.21817 | 6° | 13km/h | 30737m | 4.6m/s | 20.4°C | 47.1% | 0hPa | 0V | 00:00:00 | 00:00:00 | 00:00:00 | |
| LZ4TU-5 | 2026-09-01 01:38:25 | 40.30544 | 23.22144 | 272° | 18km/h | 30510m | 4.5m/s | 21.9°C | 41.8% | 0hPa | 0V | 00:00:00 | 00:00:00 | 00:00:00 | |
| LZ4TU-5 | 2026-09-01 01:38:21 | 40.30528 | 23.22149 | 349° | 26km/h | 30492m | 4.1m/s | 21.9°C | 41.8% | 0hPa | 0V | 00:00:00 | 00:00:00 | 00:00:00 | |
| LZ4TU-5 | 2026-09-01 01:38:11 | 40.30489 | 23.22217 | 321° | 27km/h | 30447m | 4.1m/s | 20.4°C | 47.1% | 0hPa | 0V | 00:00:00 | 00:00:00 | 00:00:00 | |
| LZ4TU-5 | 2026-09-01 01:38:06 | 40.30476 | 23.22260 | 285° | 20km/h | 30424m | 5.2m/s | 20.4°C | 47.1% | 0hPa | 0V | 00:00:00 | 00:00:00 | 00:00:00 | |
| LZ4TU-5 | 2026-09-01 01:37:12 | 40.30458 | 23.22609 | 268° | 16km/h | 30164m | 5.8m/s | 21.9°C | 41.8% | 0hPa | 0V | 00:00:00 | 00:00:00 | 00:00:00 | |
| LZ4TU-5 | 2026-09-01 01:37:07 | 40.30460 | 23.22612 | 248° | 16km/h | 30139m | 5.7m/s | 21.9°C | 41.8% | 0hPa | 0V | 00:00:00 | 00:00:00 | 00:00:00 | |
| LZ4TU-5 | 2026-09-01 01:36:57 | 40.30463 | 23.22667 | 278° | 18km/h | 30090m | 5.6m/s | 20.4°C | 47.1% | 0hPa | 0V | 00:00:00 | 00:00:00 | 00:00:00 | |
| LZ4TU-5 | 2026-09-01 01:35:58 | 40.30326 | 23.23075 | 312° | 20km/h | 29814m | 4.0m/s | 21.9°C | 41.8% | 0hPa | 0V | 00:00:00 | 00:00:00 | 00:00:00 | |
| LZ4TU-5 | 2026-09-01 01:35:54 | 40.30312 | 23.23104 | 295° | 33km/h | 29796m | 4.1m/s | 21.9°C | 41.8% | 0hPa | 0V | 00:00:00 | 00:00:00 | 00:00:00 | |
| LZ4TU-5 | 2026-09-01 01:35:44 | 40.30280 | 23.23172 | 309° | 29km/h | 29752m | 4.3m/s | 20.4°C | 47.1% | 0hPa | 0V | 00:00:00 | 00:00:00 | 00:00:00 | |
| LZ4TU-5 | 2026-09-01 01:35:40 | 40.30260 | 23.23190 | 326° | 24km/h | 29735m | 3.6m/s | 20.4°C | 47.1% | 0hPa | 0V | 00:00:00 | 00:00:00 | 00:00:00 | |
| LZ4TU-5 | 2026-09-01 01:34:45 | 40.30056 | 23.23624 | 304° | 18km/h | 29502m | 4.1m/s | 21.9°C | 41.8% | 0hPa | 0V | 00:00:00 | 00:00:00 | 00:00:00 | |
| LZ4TU-5 | 2026-09-01 01:34:41 | 40.30058 | 23.23654 | 259° | 27km/h | 29485m | 4.6m/s | 21.9°C | 41.8% | 0hPa | 0V | 00:00:00 | 00:00:00 | 00:00:00 | |
| LZ4TU-5 | 2026-09-01 01:34:31 | 40.30057 | 23.23743 | 281° | 20km/h | 29442m | 5.0m/s | 20.4°C | 47.1% | 0hPa | 0V | 00:00:00 | 00:00:00 | 00:00:00 | |
| LZ4TU-5 | 2026-09-01 01:34:26 | 40.30058 | 23.23779 | 250° | 37km/h | 29421m | 4.9m/s | 20.4°C | 0% | 0hPa | 0V | 00:00:00 | 00:00:00 | 00:00:00 | |
| LZ4TU-5 | 2026-09-01 01:33:31 | 40.30107 | 23.24256 | 244° | 22km/h | 29185m | 5.0m/s | 21.9°C | 41.8% | 0hPa | 0V | 00:00:00 | 00:00:00 | 00:00:00 | |
| LZ4TU-5 | 2026-09-01 01:33:27 | 40.30109 | 23.24275 | 276° | 18km/h | 29167m | 4.6m/s | 21.9°C | 41.8% | 0hPa | 0V | 00:00:00 | 00:00:00 | 00:00:00 | |
| LZ4TU-5 | 2026-09-01 01:33:17 | 40.30111 | 23.24334 | 273° | 26km/h | 29123m | 5.5m/s | 20.4°C | 47.1% | 0hPa | 0V | 00:00:00 | 00:00:00 | 00:00:00 | |
| LZ4TU-5 | 2026-09-01 01:33:12 | 40.30113 | 23.24385 | 283° | 16km/h | 29100m | 4.9m/s | 20.4°C | 47.1% | 0hPa | 0V | 00:00:00 | 00:00:00 | 00:00:00 | |
| LZ4TU-5 | 2026-09-01 01:32:17 | 40.30070 | 23.24814 | 258° | 24km/h | 28861m | 4.9m/s | 21.9°C | 41.8% | 0hPa | 0V | 00:00:00 | 00:00:00 | 00:00:00 | |
| LZ4TU-5 | 2026-09-01 01:32:13 | 40.30071 | 23.24836 | 326° | 9km/h | 28844m | 5.7m/s | 21.9°C | 41.8% | 0hPa | 0V | 00:00:00 | 00:00:00 | 00:00:00 | |
| LZ4TU-5 | 2026-09-01 01:32:04 | 40.30068 | 23.24890 | 294° | 9km/h | 28807m | 4.8m/s | 20.4°C | 47.1% | 0hPa | 0V | 00:00:00 | 00:00:00 | 00:00:00 | |
| LZ4TU-5 | 2026-09-01 01:31:59 | 40.30059 | 23.24902 | 273° | 20km/h | 28786m | 4.2m/s | 20.4°C | 0% | 0hPa | 0V | 00:00:00 | 00:00:00 | 00:00:00 | |
| LZ4TU-5 | 2026-09-01 01:31:04 | 40.30065 | 23.25350 | 254° | 18km/h | 28561m | 4.3m/s | 21.9°C | 41.8% | 0hPa | 0V | 00:00:00 | 00:00:00 | 00:00:00 | |
| LZ4TU-5 | 2026-09-01 01:30:59 | 40.30074 | 23.25380 | 256° | 31km/h | 28541m | 3.3m/s | 21.9°C | 41.8% | 0hPa | 0V | 00:00:00 | 00:00:00 | 00:00:00 | |
| LZ4TU-5 | 2026-09-01 01:30:49 | 40.30096 | 23.25474 | 235° | 26km/h | 28501m | 4.2m/s | 20.4°C | 47.1% | 0hPa | 0V | 00:00:00 | 00:00:00 | 00:00:00 | |
| LZ4TU-5 | 2026-09-01 01:30:44 | 40.30104 | 23.25501 | 254° | 29km/h | 28481m | 5.1m/s | 20.4°C | 47.1% | 0hPa | 0V | 00:00:00 | 00:00:00 | 00:00:00 | |
| LZ4TU-5 | 2026-09-01 01:29:44 | 40.30249 | 23.25808 | 259° | 5km/h | 28224m | 4.6m/s | 21.9°C | 41.8% | 0hPa | 0V | 00:00:00 | 00:00:00 | 00:00:00 | |
| LZ4TU-5 | 2026-09-01 01:29:39 | 40.30259 | 23.25828 | 245° | 13km/h | 28202m | 5.2m/s | 21.9°C | 41.8% | 0hPa | 0V | 00:00:00 | 00:00:00 | 00:00:00 | |
| LZ4TU-5 | 2026-09-01 01:29:29 | 40.30274 | 23.25858 | 293° | 7km/h | 28156m | 4.7m/s | 20.4°C | 47.1% | 0hPa | 0V | 00:00:00 | 00:00:00 | 00:00:00 | |
| LZ4TU-5 | 2026-09-01 01:29:24 | 40.30281 | 23.25886 | 241° | 27km/h | 28132m | 3.6m/s | 20.4°C | 47.1% | 0hPa | 0V | 00:00:00 | 00:00:00 | 00:00:00 | |
| LZ4TU-5 | 2026-09-01 01:28:23 | 40.30281 | 23.26275 | 233° | 11km/h | 27845m | 3.8m/s | 21.9°C | 41.8% | 0hPa | 0V | 00:00:00 | 00:00:00 | 00:00:00 | |
| LZ4TU-5 | 2026-09-01 01:28:19 | 40.30281 | 23.26304 | 275° | 33km/h | 27826m | 3.9m/s | 21.9°C | 41.8% | 0hPa | 0V | 00:00:00 | 00:00:00 | 00:00:00 | |
| LZ4TU-5 | 2026-09-01 01:28:10 | 40.30292 | 23.26366 | 266° | 15km/h | 27783m | 5.2m/s | 20.4°C | 47.1% | 0hPa | 0V | 00:00:00 | 00:00:00 | 00:00:00 | |
| LZ4TU-5 | 2026-09-01 01:28:05 | 40.30296 | 23.26411 | 262° | 35km/h | 27759m | 3.5m/s | 20.4°C | 0% | 0hPa | 0V | 00:00:00 | 00:00:00 | 00:00:00 | |
| LZ4TU-5 | 2026-09-01 01:27:04 | 40.30479 | 23.26852 | 228° | 38km/h | 27501m | 4.2m/s | 21.9°C | 41.8% | 0hPa | 0V | 00:00:00 | 00:00:00 | 00:00:00 | |
| LZ4TU-5 | 2026-09-01 01:26:59 | 40.30498 | 23.26861 | 275° | 16km/h | 27480m | 4.1m/s | 21.9°C | 41.8% | 0hPa | 0V | 00:00:00 | 00:00:00 | 00:00:00 | |
| LZ4TU-5 | 2026-09-01 01:26:49 | 40.30532 | 23.26941 | 250° | 18km/h | 27440m | 4.2m/s | 20.4°C | 47.1% | 0hPa | 0V | 00:00:00 | 00:00:00 | 00:00:00 | |
| LZ4TU-5 | 2026-09-01 01:26:44 | 40.30543 | 23.26978 | 231° | 24km/h | 27420m | 3.9m/s | 20.4°C | 47.1% | 0hPa | 0V | 00:00:00 | 00:00:00 | 00:00:00 | |
| LZ4TU-5 | 2026-09-01 01:25:42 | 40.30594 | 23.27275 | 300° | 27km/h | 27181m | 4.2m/s | 21.9°C | 41.8% | 0hPa | 0V | 00:00:00 | 00:00:00 | 00:00:00 | |
| LZ4TU-5 | 2026-09-01 01:25:38 | 40.30588 | 23.27308 | 270° | 20km/h | 27164m | 4.0m/s | 21.9°C | 41.8% | 0hPa | 0V | 00:00:00 | 00:00:00 | 00:00:00 | |
| LZ4TU-5 | 2026-09-01 01:25:28 | 40.30581 | 23.27346 | 301° | 29km/h | 27124m | 4.7m/s | 20.4°C | 47.1% | 0hPa | 0V | 00:00:00 | 00:00:00 | 00:00:00 | |
| LZ4TU-5 | 2026-09-01 01:25:23 | 40.30581 | 23.27378 | 214° | 15km/h | 27103m | 3.5m/s | 20.4°C | 47.1% | 0hPa | 0V | 00:00:00 | 00:00:00 | 00:00:00 | |
| LZ4TU-5 | 2026-09-01 01:24:22 | 40.30541 | 23.27793 | 301° | 27km/h | 26822m | 6.0m/s | 21.9°C | 41.8% | 0hPa | 0V | 00:00:00 | 00:00:00 | 00:00:00 | |
| LZ4TU-5 | 2026-09-01 01:24:17 | 40.30529 | 23.27833 | 262° | 26km/h | 26796m | 4.6m/s | 21.9°C | 41.8% | 0hPa | 0V | 00:00:00 | 00:00:00 | 00:00:00 | |
| LZ4TU-5 | 2026-09-01 01:24:07 | 40.30510 | 23.27900 | 314° | 18km/h | 26747m | 5.1m/s | 20.4°C | 47.1% | 0hPa | 0V | 00:00:00 | 00:00:00 | 00:00:00 | |
| LZ4TU-5 | 2026-09-01 01:24:02 | 40.30506 | 23.27935 | 264° | 35km/h | 26724m | 3.9m/s | 20.4°C | 47.1% | 0hPa | 0V | 00:00:00 | 00:00:00 | 00:00:00 | |
| LZ4TU-5 | 2026-09-01 01:21:24 | 40.30633 | 23.29592 | 247° | 22km/h | 26041m | 3.7m/s | 21.9°C | 41.8% | 0hPa | 0V | 00:00:00 | 00:00:00 | 00:00:00 | |
| LZ4TU-5 | 2026-09-01 01:21:19 | 40.30643 | 23.29635 | 265° | 27km/h | 26022m | 4.2m/s | 21.9°C | 41.8% | 0hPa | 0V | 00:00:00 | 00:00:00 | 00:00:00 | |
| LZ4TU-5 | 2026-09-01 01:21:09 | 40.30669 | 23.29721 | 248° | 29km/h | 25985m | 4.5m/s | 20.4°C | 0% | 0hPa | 0V | 00:00:00 | 00:00:00 | 00:00:00 | |
| LZ4TU-5 | 2026-09-01 01:21:05 | 40.30683 | 23.29765 | 245° | 33km/h | 25970m | 4.0m/s | 20.4°C | 47.1% | 0hPa | 0V | 00:00:00 | 00:00:00 | 00:00:00 | |
| LZ4TU-5 | 2026-09-01 01:20:03 | 40.30864 | 23.30117 | 239° | 24km/h | 25724m | 4.2m/s | 21.9°C | 41.8% | 0hPa | 0V | 00:00:00 | 00:00:00 | 00:00:00 | |
| LZ4TU-5 | 2026-09-01 01:19:59 | 40.30868 | 23.30153 | 289° | 27km/h | 25707m | 4.1m/s | 21.9°C | 41.8% | 0hPa | 0V | 00:00:00 | 00:00:00 | 00:00:00 | |
| LZ4TU-5 | 2026-09-01 01:19:50 | 40.30892 | 23.30205 | 257° | 15km/h | 25669m | 4.0m/s | 20.4°C | 47.1% | 0hPa | 0V | 00:00:00 | 00:00:00 | 00:00:00 | |
| LZ4TU-5 | 2026-09-01 01:19:45 | 40.30899 | 23.30245 | 235° | 27km/h | 25648m | 4.2m/s | 20.4°C | 47.1% | 0hPa | 0V | 00:00:00 | 00:00:00 | 00:00:00 | |
| LZ4TU-5 | 2026-09-01 01:18:44 | 40.30982 | 23.30616 | 299° | 15km/h | 25363m | 5.4m/s | 21.9°C | 41.8% | 0hPa | 0V | 00:00:00 | 00:00:00 | 00:00:00 | |
| LZ4TU-5 | 2026-09-01 01:18:39 | 40.30972 | 23.30645 | 281° | 31km/h | 25339m | 4.9m/s | 21.9°C | 41.8% | 0hPa | 0V | 00:00:00 | 00:00:00 | 00:00:00 | |
| LZ4TU-5 | 2026-09-01 01:18:29 | 40.30949 | 23.30722 | 304° | 26km/h | 25292m | 4.7m/s | 20.4°C | 47.1% | 0hPa | 0V | 00:00:00 | 00:00:00 | 00:00:00 | |
| LZ4TU-5 | 2026-09-01 01:18:24 | 40.30938 | 23.30770 | 278° | 33km/h | 25268m | 4.1m/s | 20.4°C | 47.1% | 0hPa | 0V | 00:00:00 | 00:00:00 | 00:00:00 | |
| LZ4TU-5 | 2026-09-01 01:17:23 | 40.30908 | 23.31205 | 271° | 22km/h | 25014m | 4.0m/s | 21.9°C | 41.8% | 0hPa | 0V | 00:00:00 | 00:00:00 | 00:00:00 | |
| LZ4TU-5 | 2026-09-01 01:17:19 | 40.30907 | 23.31225 | 280° | 11km/h | 24999m | 2.5m/s | 21.9°C | 41.8% | 0hPa | 0V | 00:00:00 | 00:00:00 | 00:00:00 | |
| LZ4TU-5 | 2026-09-01 01:17:14 | 40.30904 | 23.31253 | 254° | 20km/h | 24980m | 4.6m/s | 21.9°C | 41.8% | 0hPa | 0V | 00:00:00 | 00:00:00 | 00:00:00 | |
| LZ4TU-5 | 2026-09-01 01:17:09 | 40.30914 | 23.31280 | 281° | 18km/h | 24961m | 3.8m/s | 21.9°C | 0% | 0hPa | 0V | 00:00:00 | 00:00:00 | 00:00:00 | |
| LZ4TU-5 | 2026-09-01 01:15:41 | 40.30986 | 23.31586 | 325° | 13km/h | 24633m | 4.9m/s | 20.4°C | 47.1% | 0hPa | 0V | 00:00:00 | 00:00:00 | 00:00:00 | |
| LZ4TU-5 | 2026-09-01 01:15:36 | 40.30968 | 23.31600 | 5° | 7km/h | 24612m | 4.1m/s | 20.4°C | 47.1% | 0hPa | 0V | 00:00:00 | 00:00:00 | 00:00:00 | |
| LZ4TU-5 | 2026-09-01 01:14:35 | 40.30899 | 23.31751 | 269° | 13km/h | 24349m | 3.7m/s | 21.9°C | 41.8% | 0hPa | 0V | 00:00:00 | 00:00:00 | 00:00:00 | |
| LZ4TU-5 | 2026-09-01 01:14:21 | 40.30860 | 23.31775 | 319° | 18km/h | 24286m | 4.3m/s | 20.4°C | 47.1% | 0hPa | 0V | 00:00:00 | 00:00:00 | 00:00:00 | |
| LZ4TU-5 | 2026-09-01 01:14:16 | 40.30841 | 23.31783 | 339° | 22km/h | 24263m | 5.3m/s | 20.4°C | 47.1% | 0hPa | 0V | 00:00:00 | 00:00:00 | 00:00:00 | |
| LZ4TU-5 | 2026-09-01 01:13:15 | 40.30648 | 23.31963 | 339° | 11km/h | 23982m | 3.5m/s | 21.9°C | 41.8% | 0hPa | 0V | 00:00:00 | 00:00:00 | 00:00:00 | |
| LZ4TU-5 | 2026-09-01 01:13:10 | 40.30634 | 23.31985 | 298° | 16km/h | 23961m | 3.8m/s | 21.9°C | 41.8% | 0hPa | 0V | 00:00:00 | 00:00:00 | 00:00:00 | |
| LZ4TU-5 | 2026-09-01 01:13:00 | 40.30619 | 23.32005 | 309° | 9km/h | 23917m | 3.6m/s | 20.4°C | 47.1% | 0hPa | 0V | 00:00:00 | 00:00:00 | 00:00:00 | |
| LZ4TU-5 | 2026-09-01 01:12:56 | 40.30612 | 23.32017 | 338° | 9km/h | 23899m | 4.7m/s | 20.4°C | 0% | 0hPa | 0V | 00:00:00 | 00:00:00 | 00:00:00 | |
| LZ4TU-5 | 2026-09-01 01:05:15 | 40.29532 | 23.32842 | 5° | 11km/h | 22053m | 3.9m/s | 21.9°C | 41.8% | 0hPa | 0V | 00:00:00 | 00:00:00 | 00:00:00 | |
| LZ4TU-5 | 2026-09-01 01:05:10 | 40.29519 | 23.32866 | 259° | 26km/h | 22033m | 4.3m/s | 21.9°C | 41.8% | 0hPa | 0V | 00:00:00 | 00:00:00 | 00:00:00 | |
| LZ4TU-5 | 2026-09-01 01:04:54 | 40.29525 | 23.32955 | 254° | 11km/h | 21969m | 3.8m/s | 20.4°C | 47.1% | 0hPa | 0V | 00:00:00 | 00:00:00 | 00:00:00 | |
| LZ4TU-5 | 2026-09-01 01:04:49 | 40.29525 | 23.32973 | 241° | 13km/h | 21948m | 4.7m/s | 20.4°C | 47.1% | 0hPa | 0V | 00:00:00 | 00:00:00 | 00:00:00 | |
| LZ4TU-5 | 2026-09-01 01:03:05 | 40.29718 | 23.32988 | 95° | 16km/h | 21530m | 3.8m/s | 21.9°C | 41.8% | 0hPa | 0V | 00:00:00 | 00:00:00 | 00:00:00 | |
| LZ4TU-5 | 2026-09-01 01:03:00 | 40.29721 | 23.32978 | 194° | 11km/h | 21511m | 4.6m/s | 21.9°C | 41.8% | 0hPa | 0V | 00:00:00 | 00:00:00 | 00:00:00 | |
| LZ4TU-5 | 2026-09-01 01:02:45 | 40.29726 | 23.32969 | 46° | 9km/h | 21453m | 3.6m/s | 20.4°C | 47.1% | 0hPa | 0V | 00:00:00 | 00:00:00 | 00:00:00 | |
| LZ4TU-5 | 2026-09-01 01:02:40 | 40.29718 | 23.32969 | 0° | 0km/h | 21434m | 4.6m/s | 20.4°C | 47.1% | 0hPa | 0V | 00:00:00 | 00:00:00 | 00:00:00 | |
| LZ4TU-5 | 2026-09-01 01:01:16 | 40.29670 | 23.33173 | 263° | 9km/h | 21107m | 3.3m/s | 21.9°C | 41.8% | 0hPa | 0V | 00:00:00 | 00:00:00 | 00:00:00 | |
| LZ4TU-5 | 2026-09-01 01:01:11 | 40.29671 | 23.33192 | 288° | 5km/h | 21087m | 3.8m/s | 21.9°C | 41.8% | 0hPa | 0V | 00:00:00 | 00:00:00 | 00:00:00 | |
| LZ4TU-5 | 2026-09-01 01:00:48 | 40.29653 | 23.33253 | 341° | 7km/h | 20996m | 4.5m/s | 20.4°C | 47.1% | 0hPa | 0V | 00:00:00 | 00:00:00 | 00:00:00 | |
| LZ4TU-5 | 2026-09-01 01:00:44 | 40.29648 | 23.33254 | 302° | 9km/h | 20982m | 4.5m/s | 20.4°C | 47.1% | 0hPa | 0V | 00:00:00 | 00:00:00 | 00:00:00 | |
| LZ4TU-5 | 2026-09-01 00:59:17 | 40.29671 | 23.33077 | 120° | 9km/h | 20643m | 4.5m/s | 12.1°C | 66.2% | 0hPa | 0V | 00:00:00 | 00:00:00 | 00:00:00 | |
| LZ4TU-5 | 2026-09-01 00:59:12 | 40.29673 | 23.33069 | 92° | 7km/h | 20624m | 3.0m/s | 12.1°C | 66.2% | 0hPa | 0V | 00:00:00 | 00:00:00 | 00:00:00 | |
| LZ4TU-5 | 2026-09-01 00:57:38 | 40.29632 | 23.32762 | 337° | 11km/h | 20269m | 3.7m/s | -15.8°C | 13.5% | 0hPa | 0V | 00:00:00 | 00:00:00 | 00:00:00 | |
| LZ4TU-5 | 2026-09-01 00:57:03 | 40.29578 | 23.32819 | 0° | 0km/h | 20132m | 4.4m/s | -18.0°C | 18.1% | 0hPa | 0V | 00:00:00 | 00:00:00 | 00:00:00 | |
| LZ4TU-5 | 2026-09-01 00:55:30 | 40.29743 | 23.32846 | 149° | 9km/h | 19767m | 3.4m/s | -15.8°C | 13.5% | 0hPa | 0V | 00:00:00 | 00:00:00 | 00:00:00 | |
| LZ4TU-5 | 2026-09-01 00:55:21 | 40.29778 | 23.32816 | 137° | 15km/h | 19732m | 3.9m/s | -15.8°C | 13.5% | 0hPa | 0V | 00:00:00 | 00:00:00 | 00:00:00 | |
| LZ4TU-5 | 2026-09-01 00:55:16 | 40.29792 | 23.32800 | 152° | 20km/h | 19712m | 2.8m/s | -15.8°C | 13.5% | 0hPa | 0V | 00:00:00 | 00:00:00 | 00:00:00 | |
| LZ4TU-5 | 2026-09-01 00:55:10 | 40.29810 | 23.32761 | 119° | 16km/h | 19688m | 3.1m/s | -15.8°C | 13.5% | 0hPa | 0V | 00:00:00 | 00:00:00 | 00:00:00 | |
| LZ4TU-5 | 2026-09-01 00:54:54 | 40.29859 | 23.32654 | 127° | 31km/h | 19629m | 4.0m/s | -18.0°C | 18.1% | 0hPa | 0V | 00:00:00 | 00:00:00 | 00:00:00 | |
| LZ4TU-5 | 2026-09-01 00:54:49 | 40.29873 | 23.32604 | 106° | 26km/h | 19610m | 4.5m/s | -18.0°C | 18.1% | 0hPa | 0V | 00:00:00 | 00:00:00 | 00:00:00 | |
| LZ4TU-5 | 2026-09-01 00:54:45 | 40.29875 | 23.32575 | 90° | 22km/h | 19594m | 3.2m/s | -18.0°C | 18.1% | 0hPa | 0V | 00:00:00 | 00:00:00 | 00:00:00 | |
| LZ4TU-5 | 2026-09-01 00:54:40 | 40.29879 | 23.32534 | 89° | 26km/h | 19575m | 4.2m/s | -18.0°C | 18.1% | 0hPa | 0V | 00:00:00 | 00:00:00 | 00:00:00 | |
| LZ4TU-5 | 2026-09-01 00:54:36 | 40.29878 | 23.32509 | 101° | 15km/h | 19561m | 2.6m/s | -18.0°C | 18.1% | 0hPa | 0V | 00:00:00 | 00:00:00 | 00:00:00 | |
| LZ4TU-5 | 2026-09-01 00:54:31 | 40.29877 | 23.32477 | 97° | 26km/h | 19543m | 4.4m/s | -18.0°C | 18.1% | 0hPa | 0V | 00:00:00 | 00:00:00 | 00:00:00 | |
| LZ4TU-5 | 2026-09-01 00:50:49 | 40.29254 | 23.31104 | 86° | 35km/h | 18705m | 2.8m/s | -49.4°C | 0.0% | 0hPa | 0V | 00:00:00 | 00:00:00 | 00:00:00 | |
| LZ4TU-5 | 2026-09-01 00:50:45 | 40.29254 | 23.31065 | 93° | 27km/h | 18690m | 3.8m/s | -49.4°C | 0.0% | 0hPa | 0V | 00:00:00 | 00:00:00 | 00:00:00 | |
| LZ4TU-5 | 2026-09-01 00:50:39 | 40.29249 | 23.31008 | 83° | 29km/h | 18667m | 4.5m/s | -49.4°C | 0.0% | 0hPa | 0V | 00:00:00 | 00:00:00 | 00:00:00 | |
| LZ4TU-5 | 2026-09-01 00:50:29 | 40.29231 | 23.30912 | 76° | 29km/h | 18628m | 3.4m/s | -55.7°C | 0.0% | 0hPa | 0V | 00:00:00 | 00:00:00 | 00:00:00 | |
| LZ4TU-5 | 2026-09-01 00:50:25 | 40.29224 | 23.30871 | 73° | 31km/h | 18613m | 4.5m/s | -55.7°C | 0.0% | 0hPa | 0V | 00:00:00 | 00:00:00 | 00:00:00 | |
| LZ4TU-5 | 2026-09-01 00:50:21 | 40.29209 | 23.30832 | 58° | 33km/h | 18597m | 3.3m/s | -55.7°C | 0.0% | 0hPa | 0V | 00:00:00 | 00:00:00 | 00:00:00 | |
| LZ4TU-5 | 2026-09-01 00:50:18 | 40.29194 | 23.30800 | 69° | 27km/h | 18582m | 4.0m/s | -55.7°C | 0.0% | 0hPa | 0V | 00:00:00 | 00:00:00 | 00:00:00 | |
| LZ4TU-5 | 2026-09-01 00:50:12 | 40.29178 | 23.30757 | 47° | 29km/h | 18564m | 3.4m/s | -55.7°C | 0.0% | 0hPa | 0V | 00:00:00 | 00:00:00 | 00:00:00 | |
| LZ4TU-5 | 2026-09-01 00:50:07 | 40.29157 | 23.30722 | 53° | 24km/h | 18545m | 3.8m/s | -55.7°C | 0.0% | 0hPa | 0V | 00:00:00 | 00:00:00 | 00:00:00 | |
| LZ4TU-5 | 2026-09-01 00:48:22 | 40.28742 | 23.30407 | 34° | 9km/h | 18161m | 3.0m/s | -49.4°C | 0.0% | 0hPa | 0V | 00:00:00 | 00:00:00 | 00:00:00 | |
| LZ4TU-5 | 2026-09-01 00:48:18 | 40.28736 | 23.30392 | 77° | 18km/h | 18147m | 3.5m/s | -49.4°C | 0.0% | 0hPa | 0V | 00:00:00 | 00:00:00 | 00:00:00 | |
| LZ4TU-5 | 2026-09-01 00:48:13 | 40.28726 | 23.30366 | 74° | 9km/h | 18130m | 3.6m/s | -49.4°C | 0.0% | 0hPa | 0V | 00:00:00 | 00:00:00 | 00:00:00 | |
| LZ4TU-5 | 2026-09-01 00:48:08 | 40.28719 | 23.30350 | 68° | 15km/h | 18113m | 4.2m/s | -49.4°C | 0.0% | 0hPa | 0V | 00:00:00 | 00:00:00 | 00:00:00 | |
| LZ4TU-5 | 2026-09-01 00:48:03 | 40.28711 | 23.30321 | 62° | 20km/h | 18095m | 3.2m/s | -49.4°C | 0.0% | 0hPa | 0V | 00:00:00 | 00:00:00 | 00:00:00 | |
| LZ4TU-5 | 2026-09-01 00:47:52 | 40.28698 | 23.30256 | 78° | 26km/h | 18054m | 3.1m/s | -55.7°C | 0.0% | 0hPa | 0V | 00:00:00 | 00:00:00 | 00:00:00 | |
| LZ4TU-5 | 2026-09-01 00:47:46 | 40.28692 | 23.30212 | 77° | 22km/h | 18033m | 3.1m/s | -55.7°C | 0.0% | 0hPa | 0V | 00:00:00 | 00:00:00 | 00:00:00 | |
| LZ4TU-5 | 2026-09-01 00:47:41 | 40.28690 | 23.30177 | 79° | 27km/h | 18015m | 3.5m/s | -55.7°C | 0.0% | 0hPa | 0V | 00:00:00 | 00:00:00 | 00:00:00 | |
| LZ4TU-5 | 2026-09-01 00:47:37 | 40.28684 | 23.30141 | 88° | 26km/h | 18001m | 3.0m/s | -55.7°C | 0.0% | 0hPa | 0V | 00:00:00 | 00:00:00 | 00:00:00 | |
| LZ4TU-5 | 2026-09-01 00:47:31 | 40.28681 | 23.30083 | 91° | 29km/h | 17979m | 3.2m/s | -55.7°C | 0.0% | 0hPa | 0V | 00:00:00 | 00:00:00 | 00:00:00 | |
| LZ4TU-5 | 2026-09-01 00:47:19 | 40.28669 | 23.29979 | 87° | 27km/h | 17937m | 3.2m/s | -55.7°C | 0.0% | 0hPa | 0V | 00:00:00 | 00:00:00 | 00:00:00 | |
| LZ4TU-5 | 2026-09-01 00:47:14 | 40.28666 | 23.29930 | 89° | 24km/h | 17920m | 3.7m/s | -55.7°C | 0.0% | 0hPa | 0V | 00:00:00 | 00:00:00 | 00:00:00 | |
| LZ4TU-5 | 2026-09-01 00:47:10 | 40.28658 | 23.29896 | 69° | 35km/h | 17906m | 3.3m/s | -55.7°C | 0.0% | 0hPa | 0V | 00:00:00 | 00:00:00 | 00:00:00 | |
| LZ4TU-5 | 2026-09-01 00:47:05 | 40.28650 | 23.29847 | 76° | 26km/h | 17888m | 4.3m/s | -55.7°C | 0.0% | 0hPa | 0V | 00:00:00 | 00:00:00 | 00:00:00 | |
| LZ4TU-5 | 2026-09-01 00:45:24 | 40.28231 | 23.28910 | 60° | 18km/h | 17508m | 3.1m/s | -49.4°C | 0.0% | 0hPa | 0V | 00:00:00 | 00:00:00 | 00:00:00 | |
| LZ4TU-5 | 2026-09-01 00:45:19 | 40.28217 | 23.28891 | 51° | 24km/h | 17493m | 4.2m/s | -49.4°C | 0.0% | 0hPa | 0V | 00:00:00 | 00:00:00 | 00:00:00 | |
| LZ4TU-5 | 2026-09-01 00:45:15 | 40.28205 | 23.28871 | 58° | 15km/h | 17478m | 3.3m/s | -49.4°C | 0.0% | 0hPa | 0V | 00:00:00 | 00:00:00 | 00:00:00 | |
| LZ4TU-5 | 2026-09-01 00:45:09 | 40.28185 | 23.28848 | 34° | 22km/h | 17456m | 3.6m/s | -49.4°C | 0.0% | 0hPa | 0V | 00:00:00 | 00:00:00 | 00:00:00 | |
| LZ4TU-5 | 2026-09-01 00:45:06 | 40.28174 | 23.28830 | 61° | 9km/h | 17442m | 3.8m/s | -49.4°C | 0.0% | 0hPa | 0V | 00:00:00 | 00:00:00 | 00:00:00 | |
| LZ4TU-5 | 2026-09-01 00:44:58 | 40.28158 | 23.28809 | 47° | 16km/h | 17418m | 2.9m/s | -49.4°C | 0.0% | 0hPa | 0V | 00:00:00 | 00:00:00 | 00:00:00 | |
| LZ4TU-5 | 2026-09-01 00:44:54 | 40.28152 | 23.28790 | 93° | 13km/h | 17405m | 4.2m/s | -49.4°C | 0.0% | 0hPa | 0V | 00:00:00 | 00:00:00 | 00:00:00 | |
| LZ4TU-5 | 2026-09-01 00:44:49 | 40.28151 | 23.28769 | 62° | 16km/h | 17388m | 3.5m/s | -49.4°C | 0.0% | 0hPa | 0V | 00:00:00 | 00:00:00 | 00:00:00 | |
| LZ4TU-5 | 2026-09-01 00:44:44 | 40.28142 | 23.28741 | 94° | 22km/h | 17371m | 3.0m/s | -49.4°C | 0.0% | 0hPa | 0V | 00:00:00 | 00:00:00 | 00:00:00 | |
| LZ4TU-5 | 2026-09-01 00:44:39 | 40.28147 | 23.28714 | 94° | 18km/h | 17353m | 4.1m/s | -49.4°C | 0.0% | 0hPa | 0V | 00:00:00 | 00:00:00 | 00:00:00 | |
| LZ4TU-5 | 2026-09-01 00:44:34 | 40.28147 | 23.28680 | 97° | 20km/h | 17336m | 2.9m/s | -49.4°C | 0.0% | 0hPa | 0V | 00:00:00 | 00:00:00 | 00:00:00 | |
| LZ4TU-5 | 2026-09-01 00:44:30 | 40.28149 | 23.28652 | 94° | 16km/h | 17321m | 4.2m/s | -49.4°C | 0.0% | 0hPa | 0V | 00:00:00 | 00:00:00 | 00:00:00 | |
| LZ4TU-5 | 2026-09-01 00:44:24 | 40.28154 | 23.28612 | 98° | 27km/h | 17300m | 4.5m/s | -49.4°C | 0.0% | 0hPa | 0V | 00:00:00 | 00:00:00 | 00:00:00 | |
| LZ4TU-5 | 2026-09-01 00:44:19 | 40.28164 | 23.28574 | 116° | 20km/h | 17282m | 4.3m/s | -49.4°C | 0.0% | 0hPa | 0V | 00:00:00 | 00:00:00 | 00:00:00 | |
| LZ4TU-5 | 2026-09-01 00:44:15 | 40.28171 | 23.28545 | 109° | 33km/h | 17268m | 3.6m/s | -49.4°C | 0.0% | 0hPa | 0V | 00:00:00 | 00:00:00 | 00:00:00 | |
| LZ4TU-5 | 2026-09-01 00:44:09 | 40.28190 | 23.28486 | 120° | 33km/h | 17245m | 3.8m/s | -49.4°C | 0.0% | 0hPa | 0V | 00:00:00 | 00:00:00 | 00:00:00 | |
| LZ4TU-5 | 2026-09-01 00:43:51 | 40.28264 | 23.28294 | 116° | 44km/h | 17183m | 3.2m/s | -54.2°C | 0.0% | 0hPa | 0V | 00:00:00 | 00:00:00 | 00:00:00 | |
| LZ4TU-5 | 2026-09-01 00:43:46 | 40.28290 | 23.28227 | 117° | 49km/h | 17165m | 2.8m/s | -54.3°C | 0.0% | 0hPa | 0V | 00:00:00 | 00:00:00 | 00:00:00 | |
| LZ4TU-5 | 2026-09-01 00:43:42 | 40.28308 | 23.28176 | 116° | 40km/h | 17150m | 4.3m/s | -54.3°C | 0.0% | 0hPa | 0V | 00:00:00 | 00:00:00 | 00:00:00 | |
| LZ4TU-5 | 2026-09-01 00:43:34 | 40.28347 | 23.28066 | 112° | 46km/h | 17121m | 4.2m/s | -40.4°C | 0.0% | 0hPa | 0V | 00:00:00 | 00:00:00 | 00:00:00 | |
| LZ4TU-5 | 2026-09-01 00:43:29 | 40.28364 | 23.28001 | 112° | 46km/h | 17104m | 3.3m/s | -40.4°C | 0.0% | 0hPa | 0V | 00:00:00 | 00:00:00 | 00:00:00 | |
| LZ4TU-5 | 2026-09-01 00:43:26 | 40.28381 | 23.27948 | 114° | 46km/h | 17090m | 3.6m/s | -40.4°C | 0.0% | 0hPa | 0V | 00:00:00 | 00:00:00 | 00:00:00 | |
| LZ4TU-5 | 2026-09-01 00:43:15 | 40.28423 | 23.27793 | 104° | 49km/h | 17055m | 3.2m/s | -40.4°C | 0.0% | 0hPa | 0V | 00:00:00 | 00:00:00 | 00:00:00 | |
| LZ4TU-5 | 2026-09-01 00:43:10 | 40.28441 | 23.27708 | 112° | 49km/h | 17037m | 3.5m/s | -40.4°C | 0% | 0hPa | 0V | 00:00:00 | 00:00:00 | 00:00:00 |